Miscellaneous Local Product
Issued by NWS Hastings, NE

Home | Current Version | Previous Version | Text Only | Print | Product List | Glossary On
Versions: 1 2 3 4 5 6 7 8 9 10 11 12 13 14 15 16 17 18 19 20 21 22 23 24 25 26 27 28 29 30 31 32 33 34 35 36 37 38 39 40 41 42 43 44 45 46 47 48 49 50
000
AXUS43 KGID 211102
MISGRI

GID CWA HOURLY WEATHER ROUNDUP
NATIONAL WEATHER SERVICE HASTINGS NE
600 AM CDT THU AUG 21 2014

NOTE: "FAIR" INDICATES FEW OR NO CLOUDS BELOW 12,000 FEET WITH NO
SIGNIFICANT WEATHER AND/OR OBSTRUCTIONS TO VISIBILITY.

...SOUTH CENTRAL NEBRASKA...

CITY           SKY/WX    TMP DP  RH WIND       PRES   REMARKS
GRAND ISLAND   CLOUDY    69  66  90 E9        29.80F
HASTINGS       MOCLDY    72  65  78 SE14      29.80S
KEARNEY        CLOUDY    68  64  88 E9        29.79F
ORD            MOCLDY    69  64  84 S5        29.78R
YORK           TSTM      70 N/A N/A S14       29.83F
AURORA         CLOUDY    70  69  96 SE9       29.81F
LEXINGTON      CLEAR     68  64  86 E3        29.82R
HOLDREGE       MOCLDY    71  67  88 CALM      29.79S
HEBRON         CLOUDY    73  66  79 N6        29.84R

...NEBRASKA PANHANDLE...

CITY           SKY/WX    TMP DP  RH WIND       PRES   REMARKS
CHADRON        PTCLDY    58  52  80 W9        29.93R
ALLIANCE       MOCLDY    61  53  75 NW7       29.93R
SCOTTSBLUFF    CLEAR     59  50  72 N8        29.96R
SIDNEY         CLOUDY    65  55  70 W12       29.98R

...WESTERN AND NORTH CENTRAL NEBRASKA...

CITY           SKY/WX    TMP DP  RH WIND       PRES   REMARKS
VALENTINE      PTCLDY    65  61  87 NW6       29.82R
AINSWORTH      CLEAR     67  61  80 W5        29.82R
ONEILL         MOCLDY    73  65  77 SW7       29.78S
BROKEN BOW     PTCLDY    65  62  90 CALM      29.84R
IMPERIAL       PTCLDY    67  61  81 W3        29.88S
NORTH PLATTE   PTCLDY    64  60  87 NW5       29.87R
MCCOOK         CLEAR     68  63  84 NW12      29.84R

...EASTERN NEBRASKA...

CITY           SKY/WX    TMP DP  RH WIND       PRES   REMARKS
NORFOLK        CLOUDY    71  63  75 W12       29.77R
SO SIOUX CITY  PTCLDY    77  70  79 SW3       29.74R
TEKAMAH        CLOUDY    78  67  68 S12       29.76R
COLUMBUS       CLOUDY    73  61  64 S22G37    29.75F
ALBION         CLOUDY    69  62  80 CALM      29.80R
OMAHA EPPLEY   CLOUDY    78  67  68 S9        29.77S
OFFUTT AFB     CLOUDY    76  71  83 S6        29.78F
MILLARD        CLOUDY    80  68  68 S3        29.79R
LINCOLN        CLOUDY    79  66  64 SW8       29.83R
NEBRASKA CITY  CLOUDY    76  67  73 SW8       29.81R
BEATRICE       CLOUDY    77  68  73 SW7       29.85R
FALLS CITY     PTCLDY    79  69  71 S10       29.81S

...NORTHERN KANSAS...

CITY           SKY/WX    TMP DP  RH WIND       PRES   REMARKS
GOODLAND       CLEAR     64  58  80 NW8       29.91S
HILL CITY      LGT RAIN  78  66  66 SW10G16   29.81R
NORTON         MOSUNNY   73  61  64 S6        29.79R
PHILLIPSBURG   RAIN      82  63  51 S13G18    29.77F
SMITH CENTER   LGT RAIN  77  64  65 SE10      29.82R
BELOIT         CLEAR     79  64  61 CALM      29.79R
HAYS           MOCLDY    79  59  50 S21       29.80S
RUSSELL        PTCLDY    78  59  51 S16G24    29.79R
CONCORDIA      PTCLDY    77  66  68 S20G28    29.79R
SALINA         PTCLDY    79  65  62 S16G23    29.82R
TOPEKA         CLEAR     80  71  74 S14       29.86R



USA.gov is the U.S. government's official web portal to all federal, state and local government web resources and services.